CW9723 Weather Reports


time (UTC)temp
F
wind
direction
speed
knots
gust
knots
rain 1hr
in
rain 24hr
in
rain mn
in
humidity
%
barometer
mb
20260505011505 68 241 1.7 4.3 0.00 0.00 0.00 42 1002.6
20260505011001 68 204 1.7 3.5 0.00 0.00 0.00 41 1002.6
20260505010512 68 184 1.7 3.5 0.00 0.00 0.00 42 1002.5
20260505005959 68 200 1.7 3.5 0.00 0.00 0.00 43 1002.5
20260505005501 68 200 1.7 3.5 0.00 0.00 0.00 41 1002.5
20260505004958 68 216 1.7 3.5 0.00 0.00 0.00 41 1002.5
20260505004505 68 291 1.7 3.5 0.00 0.00 0.00 42 1002.5
20260505003958 68 221 1.7 3.5 0.00 0.00 0.00 43 1002.5
20260505003501 68 180 0.9 1.7 0.00 0.00 0.00 43 1002.4
20260505002957 68 197 0.9 1.7 0.00 0.00 0.00 43 1002.5
20260505002501 69 177 0.9 2.6 0.00 0.00 0.00 43 1002.4
20260505002217 69 174 0.9 2.6 0.00 0.00 0.00 43 1002.4
20260505001505 69 0 0.9 1.7 0.00 0.00 0.00 42 1002.4
20260505000958 69 199 0.9 1.7 0.00 0.01 0.00 42 1002.4
20260505000505 69 190 0.0 1.7 0.00 0.01 0.00 42 1002.3
20260504235958 70 0 0.0 0.9 0.00 0.01 0.00 42 1002.3
20260504235503 70 0 0.0 1.7 0.00 0.02 0.00 40 1002.2
20260504234958 71 0 0.9 1.7 0.00 0.02 0.00 41 1002.3
20260504234458 72 157 0.9 3.5 0.00 0.02 0.00 38 1002.3
20260504233955 72 164 0.9 3.5 0.00 0.02 0.00 38 1002.3
20260504233453 73 148 0.9 1.7 0.00 0.02 0.00 36 1002.3
20260504232951 73 223 0.9 2.6 0.00 0.02 0.00 34 1002.2
20260504232710 74 0 1.7 3.5 0.00 0.02 0.00 34 1002.1
20260504232207 75 104 1.7 5.2 0.00 0.02 0.00 33 1002.1
20260504232048 74 202 1.7 3.5 0.00 0.02 0.00 33 1002.1
20260504230950 75 196 1.7 5.2 0.00 0.02 0.00 31 1002.1
20260504230454 75 172 1.7 5.2 0.00 0.02 0.00 32 1002.1
20260504225951 75 215 2.6 5.2 0.00 0.02 0.00 32 1002.1
20260504225714 75 150 2.6 7.0 0.00 0.02 0.00 31 1002.0
20260504225442 75 228 2.6 7.0 0.00 0.02 0.00 31 1002.1
20260504224448 75 160 1.7 4.3 0.00 0.02 0.00 31 1002.1
20260504223942 75 352 2.6 5.2 0.00 0.02 0.00 31 1002.1
20260504223704 75 210 2.6 5.2 0.00 0.02 0.00 30 1002.2
20260504222942 75 60 3.5 7.0 0.00 0.02 0.00 30 1002.3
20260504222443 75 146 3.5 8.7 0.00 0.02 0.00 29 1002.2
20260504222215 76 196 2.6 8.7 0.00 0.02 0.00 30 1002.2
20260504221704 76 237 1.7 7.8 0.00 0.02 0.00 30 1002.3
20260504220940 75 147 3.5 7.8 0.00 0.02 0.00 30 1002.4
20260504220702 75 250 3.5 7.8 0.00 0.02 0.00 30 1002.4
20260504220203 76 144 3.5 9.6 0.00 0.02 0.00 30 1002.4
20260504215434 76 299 2.6 9.6 0.00 0.02 0.00 30 1002.4
20260504214934 76 173 3.5 8.7 0.00 0.02 0.00 30 1002.4
20260504214434 75 344 4.3 13.9 0.00 0.02 0.00 30 1002.5
20260504213933 75 253 4.3 13.9 0.00 0.02 0.00 30 1002.5
20260504213437 75 251 3.5 7.8 0.00 0.02 0.00 30 1002.5
20260504212934 75 304 4.3 10.4 0.00 0.02 0.00 31 1002.5
20260504212441 75 303 3.5 10.4 0.00 0.02 0.00 30 1002.5
20260504211948 75 281 3.5 10.4 0.00 0.02 0.00 33 1002.5
20260504211924 75 239 3.5 10.4 0.00 0.02 0.00 32 1002.5
20260504210934 75 236 4.3 11.3 0.00 0.02 0.00 32 1002.6
20260504210436 75 274 4.3 11.3 0.00 0.02 0.00 32 1002.7
20260504210424 75 200 4.3 9.6 0.00 0.02 0.00 33 1002.7
20260504205436 75 279 4.3 9.6 0.00 0.02 0.00 34 1002.7
20260504204932 75 274 4.3 11.3 0.00 0.02 0.00 34 1002.8
20260504204654 76 278 3.5 11.3 0.00 0.02 0.00 33 1002.8
20260504203931 76 238 3.5 7.0 0.00 0.02 0.00 34 1002.9
20260504203432 75 192 4.3 8.7 0.00 0.02 0.00 34 1002.9
20260504203158 75 275 4.3 8.7 0.00 0.02 0.00 35 1003.0
20260504202433 75 235 3.5 7.8 0.00 0.02 0.00 34 1003.0
20260504202153 75 277 3.5 10.4 0.00 0.02 0.00 34 1003.0
20260504201700 74 328 4.3 10.4 0.00 0.02 0.00 35 1003.1
20260504200931 74 284 5.2 11.3 0.00 0.02 0.00 35 1003.1
20260504200433 74 272 3.5 11.3 0.00 0.02 0.00 36 1003.2
20260504195931 74 276 3.5 7.8 0.00 0.02 0.00 35 1003.3
20260504195434 74 250 3.5 8.7 0.00 0.02 0.00 37 1003.4
20260504194931 74 286 5.2 9.6 0.00 0.02 0.00 37 1003.4
20260504194656 74 286 4.3 9.6 0.00 0.02 0.00 36 1003.5
20260504193930 74 253 4.3 10.4 0.00 0.02 0.00 37 1003.7
20260504193431 74 220 3.5 10.4 0.00 0.02 0.00 38 1003.7
20260504192930 74 291 5.2 12.2 0.00 0.02 0.00 36 1003.7
20260504192440 73 352 6.1 12.2 0.00 0.02 0.00 38 1003.8
20260504191931 73 299 6.1 10.4 0.00 0.02 0.00 37 1003.7
20260504191432 73 41 5.2 10.4 0.00 0.02 0.00 38 1003.7
20260504190932 73 251 4.3 10.4 0.00 0.02 0.00 39 1004.0
20260504190433 73 179 5.2 12.2 0.00 0.02 0.00 39 1004.1
20260504185931 73 294 6.1 12.2 0.00 0.02 0.00 38 1004.1
20260504185700 73 192 5.2 11.3 0.00 0.02 0.00 40 1004.3
20260504184931 73 260 4.3 11.3 0.00 0.02 0.00 40 1004.3
20260504184430 72 260 5.2 11.3 0.00 0.02 0.00 40 1004.4
20260504183927 72 277 6.1 12.2 0.00 0.02 0.00 40 1004.3
20260504183428 72 249 5.2 12.2 0.00 0.02 0.00 40 1004.4
20260504182927 73 267 4.3 12.2 0.00 0.02 0.00 41 1004.5
20260504182428 72 244 4.3 12.2 0.00 0.02 0.00 42 1004.5
20260504181925 71 235 5.2 13.0 0.00 0.02 0.00 42 1004.6
20260504181428 71 214 5.2 13.0 0.00 0.02 0.00 42 1004.6
20260504180925 71 224 4.3 9.6 0.00 0.02 0.00 43 1004.6
20260504180427 71 305 5.2 13.0 0.00 0.02 0.00 43 1004.6
20260504175926 70 175 6.1 13.0 0.00 0.02 0.00 44 1004.7
20260504175427 71 230 6.1 12.2 0.00 0.02 0.00 43 1004.7
20260504174929 70 249 5.2 12.2 0.00 0.02 0.00 44 1004.8
20260504174921 70 277 5.2 11.3 0.00 0.02 0.00 44 1004.9
20260504173922 69 221 6.1 11.3 0.00 0.02 0.00 46 1004.8
20260504173702 69 251 6.1 12.2 0.00 0.02 0.00 45 1004.8
20260504172922 70 204 6.1 12.2 0.00 0.02 0.00 45 1004.9
20260504172423 70 244 5.2 11.3 0.00 0.02 0.00 45 1004.8
20260504171922 70 267 4.3 10.4 0.00 0.02 0.00 46 1004.8
20260504171425 69 206 5.2 11.3 0.00 0.02 0.00 46 1005.0
20260504170923 69 202 5.2 11.3 0.00 0.02 0.00 48 1005.0
20260504170423 68 255 5.2 12.2 0.00 0.02 0.00 48 1005.1
20260504160420 66 231 4.3 10.4 0.00 0.02 0.00 48 1005.5
20260504150912 64 192 3.5 8.7 0.00 0.02 0.00 51 1006.1
20260504150412 63 210 4.3 10.4 0.00 0.02 0.00 50 1006.2
20260504150145 63 204 4.3 10.4 0.00 0.02 0.00 50 1006.1
20260504141110 60 289 4.3 10.4 0.00 0.02 0.00 53 1006.5
20260504140349 58 209 5.2 10.4 0.00 0.02 0.00 55 1006.5
20260504130345 56 73 3.5 9.6 0.00 0.02 0.00 57 1007.0
20260504110337 50 210 2.6 6.1 0.00 0.02 0.00 66 1007.3
20260504100333 51 186 3.5 6.1 0.00 0.02 0.00 64 1007.0
20260504081829 50 184 1.7 5.2 0.00 0.02 0.00 66 1007.6
20260504081330 50 200 1.7 4.3 0.00 0.02 0.00 66 1007.6
20260504080830 50 202 1.7 4.3 0.00 0.02 0.00 65 1007.7
20260504080330 49 177 1.7 4.3 0.00 0.02 0.00 66 1007.7
20260504050328 53 209 1.7 5.2 0.00 0.02 0.00 57 1008.4
20260504050317 53 237 2.6 6.1 0.00 0.02 0.00 56 1008.4
20260504045317 53 243 0.9 2.6 0.00 0.02 0.00 58 1008.4
20260504044815 53 255 1.7 2.6 0.00 0.02 0.00 58 1008.4
20260504044314 53 208 1.7 2.6 0.00 0.02 0.00 58 1008.4
20260504043814 53 200 1.7 4.3 0.00 0.02 0.00 58 1008.4
20260504043538 53 196 1.7 4.3 0.00 0.02 0.00 59 1008.4
20260504042814 53 0 0.9 2.6 0.00 0.02 0.00 60 1008.5
20260504042534 53 216 0.9 2.6 0.00 0.02 0.00 60 1008.5
20260504041815 53 199 1.7 3.5 0.00 0.02 0.00 59 1008.5
20260504041315 53 188 1.7 3.5 0.00 0.02 0.00 57 1008.5
20260504041247 54 173 1.7 3.5 0.00 0.02 0.00 58 1008.5
20260504040528 54 195 1.7 3.5 0.00 0.02 0.00 58 1008.4
20260504040024 54 211 1.7 4.3 0.00 0.02 0.02 58 1008.5
20260504035909 54 231 1.7 3.5 0.00 0.02 0.02 58 1008.4
20260504034811 54 215 1.7 5.2 0.00 0.02 0.02 57 1008.4
20260504034311 55 169 1.7 5.2 0.00 0.02 0.02 57 1008.5
20260504033811 55 210 1.7 4.3 0.00 0.02 0.02 56 1008.4
20260504033311 55 270 1.7 5.2 0.00 0.02 0.02 56 1008.4
20260504032811 55 190 2.6 7.0 0.00 0.02 0.02 56 1008.4
20260504032311 55 251 2.6 7.0 0.00 0.02 0.02 55 1008.5
20260504032030 55 254 2.6 5.2 0.00 0.02 0.02 55 1008.5
20260504031546 55 277 2.6 6.1 0.00 0.02 0.02 55 1008.6
20260504030810 55 248 2.6 6.1 0.00 0.02 0.02 55 1008.6
20260504030311 55 251 2.6 6.1 0.00 0.02 0.02 56 1008.7
20260504030041 55 217 2.6 6.1 0.00 0.02 0.02 56 1008.7
20260504025311 55 254 2.6 5.2 0.00 0.02 0.02 56 1008.8
20260504024811 55 265 2.6 5.2 0.00 0.02 0.02 56 1008.9
20260504024311 55 248 2.6 6.1 0.00 0.02 0.02 55 1008.9
20260504023812 55 252 2.6 6.1 0.00 0.02 0.02 55 1008.9
20260504023303 55 238 2.6 6.1 0.00 0.02 0.02 55 1008.9
20260504022803 56 263 2.6 6.1 0.00 0.02 0.02 54 1008.9
20260504022742 56 224 2.6 7.0 0.00 0.02 0.02 53 1008.8
20260504022025 56 260 2.6 7.0 0.00 0.02 0.02 53 1008.8
20260504021303 56 293 3.5 9.6 0.00 0.02 0.02 53 1008.9
20260504020801 56 345 4.3 10.4 0.00 0.02 0.02 53 1009.1
20260504020536 55 256 3.5 10.4 0.00 0.02 0.02 53 1009.1
20260504015759 55 33 3.5 7.8 0.00 0.02 0.02 55 1009.2
20260504015753 55 267 3.5 12.2 0.00 0.02 0.02 54 1009.3
20260504014800 55 267 5.2 12.2 0.00 0.02 0.02 54 1009.3
20260504014300 55 278 5.2 12.2 0.00 0.02 0.02 54 1009.3
20260504013800 55 310 4.3 9.6 0.00 0.02 0.02 54 1009.4
20260504013300 55 315 3.5 8.7 0.00 0.02 0.02 55 1009.4
20260504013025 55 43 3.5 8.7 0.00 0.02 0.02 55 1009.5
20260504012300 55 24 3.5 8.7 0.00 0.02 0.02 55 1009.5
20260504011800 55 305 3.5 9.6 0.00 0.02 0.02 53 1009.5